#timestamp,LO_Frequency,Hit,StdDev 
1507014015.7,286046992.1,P
1507014035.5,286046997.8,N
1507014055.3,286046997.0,N
1507014075.2,286046999.5,N
1507014095.0,286046999.2,N
1507014095.9,286046999.2,N
1507014115.7,286046997.8,N
1507014135.6,286046995.6,N
1507014155.4,286046996.4,N
1507014175.2,286046998.0,N
1507014195.1,286046996.7,N
1507014196.0,286046996.7,N
1507014215.8,286046997.1,N
1507014235.6,286046995.0,N
1507014255.5,286046993.2,Y
1507014275.3,286046995.6,P
1507014295.1,286046992.3,P
1507014315.9,286046997.8,N
1507014335.7,286047001.0,N
1507014355.5,286047002.0,N
1507014375.4,286047002.2,N
1507014395.2,286046995.9,N
1507014415.0,286046993.2,N
1507014415.9,286046993.2,N
1507014435.8,286046994.3,N
1507014455.6,286046998.9,N
1507014475.4,286047000.8,N
1507014495.2,286046999.6,N
1507014515.1,286046999.9,N
1507014516.0,286046999.9,N
1507014535.8,286046998.1,N
1507014555.6,286047001.2,N
1507014575.5,286046999.9,N
1507014595.3,286046998.9,N
1507014615.1,286047001.1,N
1507014635.9,286047001.9,N
1507014655.7,286047003.7,N
1507014675.5,286047001.4,N
1507014695.4,286046999.9,N
1507014715.2,286047006.0,N
1507014735.0,286047002.4,N
1507014735.9,286047002.4,N
1507014755.8,286047000.5,N
1507014775.6,286046999.1,N
1507014795.4,286047000.0,N
1507014815.2,286047002.6,N
1507014835.1,286047002.9,N
1507014836.0,286047002.9,N
1507014855.8,286047004.5,N
1507014875.6,286047005.5,N
1507014895.5,286047001.4,N
1507014915.3,286047000.4,N
1507014935.1,286047000.1,N
1507014955.9,286047002.6,N
1507014975.7,286047004.8,N
1507014995.5,286047005.1,N
1507015015.4,286047006.6,Y
1507015035.2,286047009.9,P
1507015055.0,286047007.0,N
1507015055.9,286047007.0,N
1507015075.8,286047008.8,N
1507015095.6,286047010.6,Y
1507015115.5,286047006.0,P
1507015135.3,286047003.1,P
1507015155.1,286047001.3,N
1507015175.8,286047001.6,N
1507015195.7,286047001.4,N
1507015215.5,286047001.5,N
1507015235.3,286047000.2,N
1507015255.2,286047003.7,N
1507015275.9,286047006.0,N
1507015295.7,286047005.3,N
1507015315.6,286047001.3,N
1507015335.4,286047000.8,N
1507015355.2,286047002.4,N
1507015375.0,286047000.1,N
1507015376.0,286047000.1,N
1507015395.8,286046999.6,N
1507015415.6,286046999.3,N
1507015435.4,286046996.6,N
1507015455.3,286046999.4,N
1507015475.1,286046999.2,N
1507015495.8,286046999.2,N
1507015515.7,286046996.5,N
1507015535.5,286046996.6,N
1507015555.3,286047001.2,N
1507015575.2,286046999.8,N
1507015595.9,286047002.0,N
1507015615.7,286046996.5,N
1507015635.6,286046999.8,N
1507015655.4,286047002.3,N
1507015675.2,286047004.4,N
1507015695.1,286047003.9,N
1507015696.0,286047003.9,N
1507015715.8,286047001.5,N
1507015735.6,286047004.8,N
1507015755.4,286047005.2,N
1507015775.3,286047001.9,N
1507015795.1,286047007.3,N
1507015815.8,286047006.8,N
1507015835.7,286047005.3,N
1507015855.5,286047005.8,N
1507015875.3,286047002.9,N
1507015895.2,286047007.4,N
1507015915.9,286047008.5,N
1507015935.7,286047006.7,N
1507015955.6,286047007.8,N
1507015975.4,286047010.3,N
1507015995.2,286047009.2,N
1507016015.1,286047012.7,Y
1507016016.0,286047012.7,P
1507016035.8,286047008.5,N
1507016055.6,286047003.3,N
1507016075.5,286047003.2,N
1507016095.3,286047003.9,N
1507016115.1,286046999.9,N
1507016135.9,286047000.3,N
1507016155.7,286046998.3,N
1507016175.5,286046999.2,N
1507016195.4,286046998.6,N
1507016215.2,286046999.9,N
1507016235.0,286047002.0,N
1507016235.9,286047002.0,N
1507016255.7,286046998.8,N
1507016275.6,286047002.1,N
1507016295.4,286047003.9,N
1507016315.2,286047003.5,N
1507016335.1,286047006.0,N
1507016336.0,286047006.0,N
1507016355.8,286047004.7,N
1507016375.6,286047005.9,N
1507016395.5,286047003.0,N
1507016415.3,286047003.1,N
1507016435.1,286047004.2,N
1507016455.9,286047000.2,N
1507016475.7,286047001.7,N
1507016495.5,286047003.9,N
1507016515.4,286047002.8,N
1507016535.2,286047000.1,N
1507016555.0,286047002.5,N
1507016555.9,286047002.5,N
1507016575.7,286047001.5,N
1507016595.6,286047006.0,N
1507016615.4,286047003.3,N
1507016635.2,286047003.5,N
1507016655.1,286047003.9,N
1507016656.0,286047003.9,N
1507016675.8,286047001.7,N
1507016695.6,286047004.0,N
1507016715.5,286047001.9,N
1507016735.3,286047001.7,N
1507016755.1,286047000.9,N
1507016775.9,286047002.4,N
1507016795.7,286047001.9,N
1507016815.5,286047003.3,N
1507016835.4,286047003.4,N
1507016855.2,286047005.7,Y
1507016875.0,286047004.3,P
1507016875.9,286047004.3,P
1507016895.8,286047001.6,N
1507016915.6,286047002.0,N
1507016935.4,286046999.9,N
1507016955.3,286046998.9,N
1507016975.1,286047000.4,N
1507016976.0,286047000.4,N
1507016995.8,286046997.7,N
1507017015.7,286046996.8,N
1507017035.5,286046997.2,N
1507017055.3,286046993.3,N
1507017075.1,286046995.3,N
1507017095.9,286046998.4,N
1507017115.7,286046997.2,N
1507017135.5,286046996.6,N
1507017155.4,286046999.2,N
1507017175.2,286046998.3,N
1507017195.0,286047000.3,N
1507017195.9,286047000.3,N
1507017215.8,286046998.6,N
1507017235.6,286046999.9,N
1507017255.4,286047000.3,N
1507017275.3,286047001.0,N
1507017295.1,286047001.7,N
1507017296.0,286047001.7,N
1507017315.8,286047006.8,N
1507017335.7,286047007.6,N
1507017355.5,286047003.2,N
1507017375.3,286047003.4,N
1507017395.1,286047003.1,N
1507017415.9,286047004.1,N
1507017435.7,286047001.3,N
1507017455.5,286046998.8,N
1507017475.4,286046997.2,N
1507017495.2,286047001.1,N
1507017515.0,286047005.2,N
1507017515.9,286047005.2,N
1507017535.8,286047003.6,N
1507017555.6,286047003.7,N
1507017575.4,286047004.1,N
1507017595.3,286047002.5,N
